PRÉPARATION DES VOLS

Pour bien préparer vos sorties, pensez à télécharger la fiche technique de votre avion, la check-list, le manuel de vol, le devis de centrage ou encore un modèle de Log de Nav.

Piper PA19 (F-BOFY)

 

Type : 2 places train classique

Moteur : Continental 90 cv.

Performances : 140 km/h

Robin DR 400 (F-BXRY)

Type : 2/3 places en instruction & entraînement (devis de centrage).

Moteur : Lycoming 4 cyl. à plat, 108 cv.

Performances : 180 km/h

Autonomie : 4 h soit environ 720 km franchissables.

Avionique : 1 radio com Bendix/King, 1 VOR, 1 transpondeur.

Robin DR 400 120 (F-GSBN)

Type : 3/4 places instruction, entraînement, voyage.

Moteur : Lycoming 4 cyl. à plat, 120 cv.

Performances : 190 km/h

Autonomie : 4 h soit environ 760 km franchissables.

Avionique : 1 radio com Bendix/King, 1 VOR, 1 transpondeur mode S, intercom 2 voies type.

 

Robin DR 400 120 (F-GNNY)

Type : 3/4 places instruction, entraînement, voyage.

Moteur : Lycoming 4 cyl. à plat, 120 cv.

Performances : 190 km/h

Autonomie : 4 h soit environ 760 km franchissables.

Avionique : 1 radio com Bendix/King, 1 VOR, 1 transpondeur mode S, intercom 2 voies type.

 

Robin DR 400 140 B (F-GHPJ)

Type : 4 places, pour entraînement et voyage.

Moteur : Robin Lycoming 4 cyl. à plat, 160 cv.

Performances : 206 km/h

Autonomie : 3 h 30 min soit environ 720 km de distance franchissable.

Avionique : 1 radio com Bendix/King, 1 VOR, 1 transpondeur mode S, intercom 4 voies.

 

Piper Archer II (PA 28) (F-GALA)

 

Type : 4 places, pour entraînement, voyage.

Moteur : Lycoming 4 cyl. à plat, 180 cv.

Performances : 220 km/h

Autonomie : 5 h30 soit environ 1200 km de distance franchissable.

Avionique : Radio intégrée au système GPS Garmin GNS 430, 2 VOR, 1 DME, 1 transpondeur mode S, pilote automatique 2 axes, intercom 4 voies et boite de mélange.

 

Télécharger l’aide mémoire de la radio GTR 225A

Télécharger l’aide mémoire de la radio GNC 255A

Télécharger un log de nav

Log 1

Cliquez sur le formulaire pour le télécharger

Log_1*Notice d’utilisation*

Ce Log de Nav a été optimisé pour rendre les calculs automatiques sous Excel. Indiquez simplement vos points de report, les altitudes et les distances en NM. La feuille calcule alors le temps sans vent pour chaque étape et donne le total, qu’elle convertit en heure-minutes. Elle calcule également la distance totale et la convertit en kilomètres. Enfin, elle affiche le résultat du devis carburant, calculé automatiquement par le 2ème feuillet. Vous pouvez également inscrire préalablement les fréquences Radio et Nav. Les autres cases sont à remplir pendant le vol : date, top départ, heure estimée (grisée), heure réelle,horamètre, Atis…
Bons vols à tous !
Guillaume

Log 2

Cliquez sur le formulaire pour le télécharger

Log_2

Log 3

 Cliquez sur le formulaire pour le télécharger

Log_3

L’alphabet Morse et l’alphabet international

Alphabet International

Nos coordonnées

Aéroclub Renault

Aérodrome de Chavenay

78450 Chavenay-Villepreux

telephone

Atis

Télécharger la VAC LFPX

 

Télécharger le calcul de centrage

Télécharger la feuille ATIS

Télécharger le mémo VFR 2019-2020

 

Télécharger le formulaire de prorogation SEP

METARS / TAF de Toussus, Evreux, Orly et Roissy

Toussus

LFPN 200400Z AUTO 25006KT 230V290 CAVOK 15/14 Q1009

TAF TAF AMD LFPN 132015Z 1320/1420 17005KT 5000 BKN025 TEMPO 1320/1324 2000 BR OVC008 PROB30 TEMPO 1320/1324 0800 FG OVC002

Evreux

LFOE 200400Z AUTO 20008KT CAVOK 14/13 Q1009 BECMG BKN008

TAF TAF LFOE 200200Z 2003/2103 21008KT 9999 BKN008 BECMG 2006/2008 SCT015 BECMG 2010/2013 SCT035TCU TEMPO 2014/2021 4000 -SHRA SCT012 BKN030CB PROB30 TEMPO 2016/2020 TSRA

Orly

LFPO 200400Z 22005KT 180V240 9999 FEW011 SCT260 16/15 Q1010 TEMPO BKN008

TAF LFPO 191700Z 1918/2024 VRB04KT 9999 FEW030CB TEMPO 1918/1922 4000 SHRA BKN025CB PROB40 TEMPO 1918/1920 VRB15G32KT 1500 TSRA BKN012 BKN025CB BECMG 1921/1923 22006KT BKN020 PROB40 TEMPO 2000/2007 BKN008 BECMG 2011/2013 SCT040TCU TEMPO 2014/2024 4000 SHRA BKN050CB PROB40 TEMPO 2015/2021 VRB15G32KT 2000 TSRA BKN025CB

Roissy

LFPG 200400Z 22012KT 9999 FEW011 BKN260 17/14 Q1009 NOSIG

TAF AMD LFPG 192110Z 1921/2024 05010KT 8000 BKN005 TX24/2012Z TN17/2006Z BECMG 1921/1923 21012KT BKN012 BECMG 2012/2014 14006KT TEMPO 2016/2021 VRB10G25KT 4000 -SHRA SCT030TCU PROB40 TEMPO 2017/2021 VRB15G35KT 2500 TSRA BKN025CB

Share This